Location: Newark
(41.6500°N, 71.4833°W)
Time: 14:35:51
(UTC+00:00)

deb Explorer IX - Pass Details

Date: 26 January 2020
Orbit: 549 x 1099 km, 38.8° (Epoch: 28 February)

Event Time Altitude Azimuth Distance (km) Brightness Sun altitude
Rises 00:26:33 0° 200° (SSW) 3,583 ? -28.7°
Reaches altitude 10° 00:29:53 10° 183° (S) 2,734 ? -29.4°
Enters shadow 00:31:13 14° 173° (S) 2,483 ? -29.6°
Maximum altitude 00:34:21 19° 141° (SE) 2,247 - -30.2°
Drops below altitude 10° 00:39:03 10° 100° (E) 2,913 - -31.1°
Sets 00:42:43 0° 84° (E) 3,902 - -31.8°
